Wetbulb
76.70 75.62 74.62 71.61 55.05 52.70 49.53 54.20 57.26 56.62 58.02 61.38 62.47 60.56 60.80 62.40 58.07 48.46 67.13 70.16 72.25 72.99 73.92 75.15 76.75 76.30 76.02 76.09 76.31 76.12 75.73 75.69 75.32 75.02 75.18 75.45 75.15 76.19 75.64 75.65 75.28 74.88 73.57 73.32 73.70 74.16 73.61 75.45 76.05
76.80 75.31 74.68 65.86 50.74 47.04 50.43 57.38 55.61 58.18 61.12 62.97 63.17 63.06 61.80 60.54 65.89 65.95 66.19 71.66 72.93 73.16 73.41 74.39 76.78 76.55 76.22 76.23 76.27 76.17 76.02 76.06 75.54 75.13 75.17 75.34 75.14 75.51 75.44 75.34 75.02 74.39 73.42 72.95 74.20 74.52 75.40 76.00 75.87
75.65 75.93 68.13 56.74 49.84 47.76 51.34 56.74 58.16 60.61 62.69 61.71 60.99 64.18 63.30 62.61 66.05 66.19 69.20 72.28 72.65 72.85 73.42 74.11 76.38 76.25 76.22 76.33 76.42 76.43 76.16 76.22 75.88 75.71 75.49 75.38 75.74 75.98 75.42 74.86 74.10 73.73 72.31 74.20 75.01 75.48 76.04 75.99 75.49
73.03 67.10 61.55 52.42 50.74 54.54 56.67 57.72 60.54 59.89 61.77 62.91 62.22 59.36 64.73 68.31 66.53 68.34 71.96 71.73 71.62 72.04 72.77 75.69 76.30 75.93 76.18 76.65 76.53 76.34 76.40 76.46 76.24 75.85 75.63 75.61 75.89 76.08 75.77 74.58 74.50 74.98 75.16 75.81 76.06 76.06 76.06 75.90 75.82
66.92 61.64 53.76 51.55 52.74 57.23 58.83 60.72 61.31 60.14 60.45 60.92 61.99 59.72 61.85 67.30 69.83 70.99 70.43 71.18 71.29 71.51 73.18 74.70 77.05 76.65 76.64 76.72 76.70 76.76 76.75 76.67 76.43 76.10 75.82 75.70 75.86 75.87 75.26 75.44 75.96 76.55 76.32 76.01 75.90 76.09 75.85 75.41 75.51
59.28 58.76 51.14 48.87 53.26 58.64 60.27 61.79 61.06 60.19 61.01 61.66 61.13 59.94 61.23 68.20 69.05 70.02 69.52 71.08 72.25 72.29 73.62 74.52 76.64 76.65 76.80 76.43 76.65 76.48 76.65 76.50 76.59 76.26 76.04 75.84 76.02 76.10 75.97 75.89 77.21 77.11 76.88 76.46 75.98 75.93 75.84 75.48 75.21
58.20 54.47 52.17 52.29 54.52 57.02 59.39 62.65 59.89 59.60 60.48 60.64 63.51 58.75 61.74 65.00 69.12 68.60 69.23 71.70 72.81 73.70 73.10 73.46 74.25 75.33 76.82 76.73 76.67 76.67 76.24 76.56 76.65 76.58 76.74 76.94 76.58 76.54 76.51 76.45 76.81 77.05 76.66 76.02 75.79 75.49 75.27 75.07 74.44
60.23 56.15 53.77 53.71 53.00 54.50 60.78 62.13 62.55 61.28 60.09 65.10 65.05 58.83 58.58 64.24 68.09 68.51 70.36 71.49 72.18 72.76 72.92 72.34 72.80 73.70 73.26 74.32 76.39 76.63 76.62 76.66 76.69 76.61 76.56 76.99 76.75 76.81 76.50 76.31 76.81 76.68 75.88 75.60 75.77 75.16 75.10 75.04 74.16
63.27 54.11 51.75 53.83 55.01 57.19 62.02 60.17 63.29 64.37 62.43 63.51 64.12 63.08 64.49 66.86 67.91 67.83 69.13 69.94 70.66 71.65 72.17 72.15 72.29 72.63 73.03 73.39 74.82 75.98 76.38 76.52 76.30 76.29 76.51 76.10 74.06 74.34 74.75 76.34 76.60 76.15 75.74 75.41 75.79 75.48 75.23 75.09 74.92
58.99 53.62 56.00 59.49 59.23 58.24 61.48 61.35 61.69 60.94 60.74 60.62 62.37 64.41 65.90 66.54 66.17 66.36 67.11 67.71 68.75 69.80 71.37 72.51 72.24 72.08 72.56 74.07 73.72 73.29 74.17 73.83 73.84 74.17 74.27 74.17 73.78 74.16 74.75 75.38 75.99 76.24 75.96 75.21 75.16 75.15 75.24 74.92 73.64
60.91 56.19 60.40 61.03 61.28 62.77 61.63 61.35 62.87 59.89 57.90 60.72 60.81 62.28 64.34 65.13 65.47 65.71 66.86 67.42 67.83 69.50 70.83 72.05 72.16 71.90 71.69 72.39 72.44 72.43 72.54 72.72 72.74 73.37 73.52 73.92 73.56 73.52 74.42 74.06 74.10 74.42 75.51 74.45 74.51 74.02 73.92 73.60 73.10
58.55 61.55 61.80 62.79 63.53 62.21 60.84 62.59 60.24 60.89 60.39 63.97 64.31 64.37 64.30 64.84 65.16 65.43 66.04 66.90 67.54 68.40 69.87 71.77 71.88 71.20 71.11 71.84 72.03 71.83 72.15 72.29 72.06 72.54 72.72 72.43 72.43 72.14 72.55 73.14 73.34 73.47 74.11 73.94 73.88 73.47 73.55 73.30 73.42
59.37 60.86 62.41 63.87 61.67 62.22 62.71 60.82 60.31 60.83 63.03 65.57 65.22 64.79 64.08 64.97 65.54 66.25 66.70 67.14 67.41 67.10 68.77 70.55 70.98 70.60 70.68 70.98 71.50 71.57 71.66 72.14 72.24 72.48 72.34 71.98 71.61 71.71 72.22 71.67 72.57 72.89 73.48 73.31 73.07 73.05 72.37 72.09 72.78
61.07 61.46 61.22 62.98 62.83 62.23 59.99 60.23 60.51 61.13 63.33 64.40 64.39 63.76 64.53 65.14 65.61 65.10 65.98 66.43 66.80 67.25 67.35 69.85 70.33 70.13 69.62 70.66 70.97 70.94 71.22 71.73 71.47 71.86 72.04 72.40 71.95 71.73 72.01 72.08 71.73 72.16 72.87 73.22 73.17 72.50 72.01 71.64 71.96
59.84 57.53 57.67 60.23 62.82 60.09 61.00 57.10 58.23 61.66 62.49 62.90 63.17 64.13 64.74 65.10 64.40 64.45 65.73 66.20 67.02 66.81 68.21 69.23 69.59 69.52 69.25 70.74 70.89 71.10 71.22 71.40 71.50 71.34 71.96 71.81 72.13 71.79 72.08 71.90 71.76 71.85 72.76 72.79 72.72 72.28 72.19 71.79 72.43
55.75 53.83 50.02 57.26 60.83 61.87 58.96 51.75 60.07 61.33 60.89 60.43 62.04 63.11 63.93 63.92 63.64 64.92 65.27 66.23 66.97 67.19 68.28 68.87 70.86 69.57 69.50 70.50 71.31 71.05 71.05 70.87 71.54 71.72 72.07 72.26 72.23 72.46 72.21 72.09 72.02 72.86 72.69 72.64 72.21 71.91 71.86 71.83 72.36
52.52 47.03 50.24 53.57 60.75 60.40 57.93 53.95 59.26 60.54 60.48 59.64 60.19 61.21 62.63 62.22 62.22 64.07 65.60 66.66 67.08 67.61 67.54 68.08 68.97 69.22 70.06 70.69 71.34 70.57 70.28 70.47 71.51 71.66 72.28 72.80 72.79 73.35 72.43 72.57 73.47 73.24 72.65 72.22 72.26 72.19 71.90 71.54 71.87
47.68 49.92 53.43 51.80 57.76 58.32 55.95 55.85 58.17 60.53 59.35 58.86 58.78 59.55 59.89 60.42 61.46 63.36 65.25 66.58 67.87 67.62 67.98 68.54 68.85 70.51 70.74 70.98 71.08 70.88 70.46 69.75 71.14 71.76 72.62 73.15 72.36 72.96 72.93 72.57 72.93 73.13 72.58 72.58 72.40 72.01 71.80 71.59 71.45
52.54 51.91 51.37 55.19 58.66 56.98 53.91 55.15 57.52 59.89 60.27 58.60 58.15 58.56 58.94 59.86 62.13 62.38 64.86 66.11 67.85 68.32 68.21 68.77 68.96 70.22 70.37 69.78 69.22 68.93 69.08 70.02 70.62 71.88 72.39 73.07 73.26 73.87 73.48 72.27 72.74 73.05 72.35 72.28 72.74 71.90 70.80 70.33 72.11
53.78 50.94 50.87 54.70 58.77 55.90 55.25 54.56 57.40 59.31 59.63 60.56 59.73 59.72 60.71 61.62 62.24 61.54 63.80 65.09 67.91 68.29 68.66 68.90 69.10 69.81 70.66 70.48 69.66 69.62 69.99 70.92 71.02 71.97 73.23 73.25 73.30 73.26 73.14 72.27 72.73 72.46 72.28 72.44 72.67 72.31 71.16 71.61 72.16
50.93 49.42 50.53 51.98 56.22 56.63 53.82 50.44 54.67 58.45 60.57 60.94 60.89 62.30 62.40 61.62 62.02 62.45 62.62 65.12 67.50 67.78 68.41 69.19 69.51 69.82 70.86 70.91 70.51 71.51 71.65 71.33 70.70 70.46 70.90 70.93 72.08 72.11 73.13 73.25 72.98 72.55 73.29 72.97 72.55 72.20 71.32 70.64 70.92
46.89 54.54 55.08 54.90 50.96 45.81 52.58 43.68 48.28 53.38 56.18 58.41 59.53 59.99 61.67 61.94 63.24 64.04 63.01 64.49 66.28 67.45 68.85 69.66 69.84 70.32 70.84 70.84 70.04 70.30 69.88 68.45 69.07 69.22 70.21 69.92 71.05 72.93 73.97 73.76 73.43 73.35 73.44 72.86 72.93 72.58 71.96 70.84 68.93
51.47 54.71 52.77 53.68 48.75 45.98 47.59 44.98 47.98 52.29 52.52 54.79 57.28 58.93 60.17 62.30 62.90 63.69 64.34 65.22 66.51 67.86 68.15 68.78 69.39 70.24 71.11 70.91 70.73 70.13 69.30 69.25 70.08 70.19 69.26 69.95 70.99 73.75 73.11 72.97 72.25 71.86 72.19 71.39 71.35 70.98 71.32 71.40 70.97
55.88 51.88 48.74 47.44 45.09 40.85 42.31 43.93 45.08 48.41 52.14 54.56 57.16 58.73 60.05 61.99 63.05 64.25 65.70 66.15 66.39 67.37 68.17 69.43 69.15 69.84 70.85 70.97 70.67 70.85 69.47 69.16 70.14 69.91 69.05 70.22 71.47 72.26 72.21 71.88 70.39 68.81 68.90 68.88 68.39 68.46 68.52 70.17 70.93
51.01 46.62 40.54 39.50 38.53 38.82 41.76 42.42 46.68 50.81 54.43 56.54 57.84 58.92 59.68 61.51 62.91 63.37 64.32 65.04 65.50 66.55 67.12 68.83 69.27 68.82 70.03 71.14 70.66 71.10 70.59 70.04 70.11 70.08 70.17 70.63 71.02 71.10 71.16 69.69 67.92 67.16 67.28 67.78 67.98 67.07 67.04 67.03 66.65
47.79 46.98 42.23 36.14 35.99 38.57 44.19 41.79 48.30 53.44 56.65 57.23 58.53 59.38 60.58 60.58 62.72 63.48 64.09 65.51 65.76 66.85 67.28 68.35 68.83 68.87 69.47 69.78 71.05 71.58 71.23 71.18 71.32 70.83 70.85 70.77 71.06 71.00 70.12 66.88 66.80 66.30 66.43 66.92 66.54 65.90 66.01 65.66 65.55
49.44 46.48 47.43 41.88 38.59 39.11 41.28 46.87 50.95 54.27 55.84 56.89 57.23 58.64 60.27 60.84 62.93 63.26 64.37 64.85 65.87 66.93 67.84 68.79 69.10 68.79 68.99 69.53 70.80 71.09 71.05 71.14 71.14 71.48 71.52 70.68 71.15 69.99 66.83 66.09 66.08 65.08 65.68 65.15 64.49 63.94 63.80 64.31 64.20
51.36 50.96 44.47 41.05 36.81 35.42 40.35 42.30 44.98 50.26 53.50 56.06 57.35 57.92 60.86 60.61 62.74 63.45 64.40 65.09 66.42 67.91 68.89 69.76 69.95 69.46 69.54 70.05 70.67 71.52 71.12 71.71 71.86 71.53 70.81 70.41 69.64 67.25 65.08 65.73 65.39 64.47 64.27 63.94 63.30 63.43 63.21 63.96 64.18
47.80 44.32 42.19 42.67 39.81 36.89 35.67 41.08 49.43 51.81 52.96 54.75 56.04 57.64 60.02 62.05 62.64 63.74 64.43 65.98 66.90 68.80 69.75 69.85 69.86 69.66 70.16 70.48 70.82 71.43 71.33 71.96 71.91 70.89 69.66 69.10 66.00 64.91 65.17 65.39 64.80 64.64 64.66 63.69 63.65 63.52 63.48 63.56 64.69
46.60 45.98 44.02 40.95 38.56 37.33 38.13 42.65 51.00 53.00 54.08 54.84 56.02 56.57 59.99 63.34 63.11 63.72 64.84 66.04 66.93 68.53 69.60 69.85 69.99 70.16 70.83 71.01 71.16 71.52 71.78 71.40 70.64 68.19 67.52 66.19 64.93 64.60 65.17 64.71 64.68 65.08 64.55 63.78 64.42 63.93 62.97 63.94 63.98
MSLP
1005.98 1006.29 1006.63 1007.11 1007.70 1007.66 1008.15 1008.17 1007.51 1007.55 1007.73 1007.94 1008.15 1008.84 1009.96 1010.90 1011.33 1012.38 1011.99 1011.92 1012.00 1012.25 1012.23 1012.25 1012.22 1012.22 1012.35 1012.44 1012.41 1012.39 1012.40 1012.44 1012.41 1012.46 1012.46 1012.44 1012.76 1010.10 1013.85 1013.34 1014.41 1014.83 1015.24 1015.36 1015.48 1015.65 1015.68 1015.75 1015.76
1006.10 1006.52 1006.67 1006.87 1007.73 1008.36 1008.44 1007.95 1007.94 1007.78 1007.87 1007.89 1008.42 1009.19 1010.01 1011.09 1011.41 1011.93 1012.21 1012.16 1012.12 1012.46 1012.60 1012.54 1012.43 1012.46 1012.60 1012.58 1012.61 1012.64 1012.59 1012.75 1012.91 1013.03 1013.01 1012.91 1013.15 1013.51 1013.94 1014.41 1014.91 1015.50 1015.83 1015.75 1015.74 1015.79 1015.88 1015.93 1016.01
1005.72 1005.73 1006.58 1006.90 1007.92 1008.36 1008.37 1008.29 1008.19 1007.93 1007.72 1007.83 1008.84 1009.48 1010.24 1011.40 1011.77 1011.97 1012.03 1012.32 1012.46 1012.83 1012.84 1012.77 1012.78 1012.84 1012.82 1012.76 1012.78 1012.79 1012.88 1013.14 1013.35 1013.49 1013.53 1013.50 1013.55 1013.80 1014.10 1014.89 1015.60 1015.87 1015.96 1015.73 1015.84 1016.02 1016.04 1016.15 1016.26
1005.33 1006.03 1006.68 1007.12 1008.00 1007.89 1007.95 1008.28 1008.20 1008.09 1008.17 1008.42 1009.05 1010.07 1010.83 1011.15 1011.77 1011.94 1012.33 1012.70 1012.98 1013.07 1013.07 1013.02 1013.07 1013.14 1013.14 1013.09 1013.05 1013.12 1013.29 1013.54 1013.79 1013.96 1014.12 1014.11 1014.28 1014.48 1014.87 1015.40 1015.65 1015.62 1016.01 1015.87 1015.97 1016.19 1016.24 1016.46 1016.68
1005.70 1006.24 1007.24 1007.82 1007.91 1007.83 1007.87 1007.96 1008.40 1008.44 1008.75 1009.17 1009.41 1010.91 1011.62 1011.78 1011.80 1012.25 1012.79 1013.14 1013.23 1013.39 1013.34 1013.29 1013.25 1013.34 1013.36 1013.36 1013.43 1013.56 1013.66 1013.94 1014.24 1014.42 1014.57 1014.68 1014.86 1015.12 1015.30 1015.56 1015.66 1015.56 1015.80 1015.99 1016.29 1016.47 1016.60 1016.85 1017.06
1005.93 1006.80 1007.87 1008.20 1008.00 1007.83 1007.77 1008.01 1008.30 1008.55 1009.14 1009.69 1010.29 1011.22 1012.32 1012.35 1012.28 1012.80 1013.16 1013.45 1013.54 1013.73 1013.64 1013.50 1013.41 1013.51 1013.57 1013.72 1013.82 1013.96 1014.11 1014.35 1014.60 1014.71 1014.83 1015.15 1015.37 1015.51 1015.74 1015.88 1015.72 1015.85 1016.05 1016.32 1016.63 1016.77 1016.97 1017.17 1017.24
1006.04 1007.12 1008.02 1007.92 1007.98 1007.83 1007.70 1007.88 1008.37 1008.70 1009.15 1009.77 1010.26 1011.59 1012.67 1012.91 1012.88 1013.20 1013.48 1013.80 1013.95 1013.86 1013.98 1013.89 1013.82 1013.80 1013.83 1014.00 1014.15 1014.32 1014.56 1014.74 1014.82 1014.96 1015.09 1015.29 1015.53 1015.76 1015.98 1016.08 1016.10 1015.90 1016.10 1016.64 1016.82 1017.10 1017.29 1017.36 1017.44
1005.88 1006.75 1007.83 1007.80 1007.76 1007.73 1007.71 1008.04 1008.59 1008.69 1009.20 1009.54 1009.95 1011.67 1012.57 1012.82 1013.04 1013.44 1013.82 1014.11 1014.25 1014.30 1014.28 1014.30 1014.30 1014.27 1014.31 1014.38 1014.43 1014.55 1014.81 1014.96 1015.05 1015.21 1015.44 1015.55 1015.70 1015.82 1016.05 1016.24 1016.52 1016.48 1016.57 1016.63 1016.92 1017.23 1017.45 1017.47 1017.50
1005.52 1006.97 1007.56 1007.16 1007.08 1007.29 1007.52 1008.15 1008.56 1008.72 1009.10 1009.59 1010.08 1010.95 1011.65 1012.47 1013.09 1013.69 1014.17 1014.40 1014.49 1014.55 1014.64 1014.54 1014.64 1014.69 1014.69 1014.68 1014.63 1014.80 1014.95 1015.22 1015.40 1015.45 1015.65 1015.90 1016.13 1016.22 1016.53 1016.47 1016.49 1016.61 1016.67 1016.85 1017.06 1017.30 1017.43 1017.52 1017.60
1005.63 1006.63 1006.74 1006.53 1006.33 1006.67 1007.37 1007.81 1008.39 1009.02 1009.49 1010.22 1010.78 1011.36 1011.96 1012.68 1013.29 1013.81 1014.15 1014.38 1014.52 1014.55 1014.64 1014.72 1014.74 1014.87 1014.86 1014.78 1014.96 1015.21 1015.36 1015.45 1015.74 1015.80 1016.06 1016.24 1016.40 1016.63 1016.72 1016.70 1016.65 1016.62 1016.76 1016.96 1017.01 1017.17 1017.29 1017.45 1017.81
1005.70 1006.35 1006.17 1006.14 1005.93 1006.20 1007.14 1007.87 1008.19 1008.94 1009.79 1010.05 1010.66 1011.64 1012.22 1012.79 1013.40 1013.81 1014.15 1014.32 1014.42 1014.51 1014.61 1014.69 1014.93 1014.93 1014.98 1014.94 1015.26 1015.50 1015.68 1015.78 1015.95 1016.13 1016.29 1016.37 1016.49 1016.58 1016.70 1016.85 1016.93 1016.97 1017.00 1017.11 1017.20 1017.28 1017.38 1017.53 1017.69
1005.78 1006.14 1006.03 1005.98 1005.95 1006.42 1006.89 1007.62 1008.28 1008.59 1008.92 1009.60 1010.46 1011.12 1012.01 1012.66 1013.10 1013.34 1013.71 1014.06 1014.28 1014.42 1014.43 1014.68 1014.83 1014.98 1015.08 1015.10 1015.29 1015.54 1015.72 1015.85 1015.96 1016.19 1016.37 1016.64 1016.81 1016.81 1016.90 1017.01 1017.03 1017.07 1017.13 1017.26 1017.27 1017.42 1017.45 1017.41 1017.44
1006.16 1006.45 1006.44 1006.22 1006.17 1006.37 1006.71 1007.28 1007.79 1008.71 1008.95 1009.77 1010.74 1011.43 1011.94 1012.34 1012.77 1013.09 1013.50 1013.90 1014.08 1014.23 1014.26 1014.42 1014.66 1015.02 1015.09 1015.27 1015.41 1015.56 1015.74 1015.78 1015.87 1015.94 1016.18 1016.45 1016.71 1016.94 1017.04 1017.06 1017.11 1017.20 1017.30 1017.38 1017.37 1017.31 1017.30 1017.25 1017.29
1006.64 1006.63 1006.84 1006.80 1006.84 1006.99 1007.27 1007.92 1007.94 1008.98 1009.13 1009.97 1010.72 1011.32 1011.79 1012.19 1012.43 1012.89 1013.29 1013.67 1013.81 1013.83 1014.07 1014.27 1014.58 1014.74 1015.04 1015.38 1015.46 1015.55 1015.63 1015.75 1015.91 1016.06 1016.04 1016.22 1016.39 1016.64 1016.79 1016.89 1017.00 1017.02 1017.04 1017.16 1017.30 1017.35 1017.29 1017.24 1017.29
1006.91 1007.09 1007.11 1007.13 1007.07 1007.38 1007.48 1008.38 1008.57 1008.73 1009.17 1010.01 1010.65 1011.15 1011.47 1011.70 1012.19 1012.29 1012.30 1012.85 1013.18 1013.32 1013.65 1014.06 1014.39 1014.50 1014.98 1015.20 1015.33 1015.59 1015.69 1015.79 1015.87 1015.92 1016.02 1016.11 1016.36 1016.59 1016.69 1016.75 1016.84 1016.66 1016.79 1017.00 1017.15 1017.17 1017.34 1017.38 1017.12
1007.29 1007.55 1007.59 1007.17 1006.98 1007.17 1007.53 1008.42 1008.73 1009.11 1009.49 1010.02 1010.45 1010.88 1011.23 1011.43 1011.44 1011.69 1011.88 1012.30 1012.75 1013.19 1013.49 1013.92 1014.26 1014.49 1014.77 1015.12 1015.28 1015.60 1015.77 1015.90 1015.94 1015.98 1015.96 1015.96 1016.04 1016.21 1016.45 1016.62 1016.59 1016.44 1016.64 1016.85 1017.06 1017.26 1017.33 1017.21 1017.14
1008.01 1007.98 1007.85 1007.34 1007.20 1007.30 1007.87 1008.61 1008.92 1009.13 1009.60 1010.18 1010.28 1010.53 1010.81 1011.20 1011.43 1011.47 1011.59 1011.90 1012.28 1012.60 1013.36 1013.81 1014.06 1014.37 1014.64 1014.97 1015.29 1015.56 1015.69 1015.83 1015.91 1016.00 1016.02 1016.04 1016.07 1016.11 1016.25 1016.19 1016.14 1016.19 1016.40 1016.62 1016.85 1017.16 1017.27 1017.12 1016.94
1008.13 1008.07 1007.85 1007.46 1007.31 1007.45 1008.05 1008.63 1009.02 1009.25 1009.57 1009.94 1010.31 1010.58 1010.70 1010.75 1010.65 1011.00 1011.30 1011.69 1012.12 1012.56 1013.09 1013.63 1014.03 1014.33 1014.77 1015.10 1015.39 1015.67 1015.73 1015.77 1015.87 1015.91 1015.97 1015.99 1016.03 1016.10 1016.25 1016.32 1016.25 1016.26 1016.55 1016.66 1016.87 1017.01 1017.09 1016.84 1016.95
1007.46 1007.65 1007.37 1006.97 1006.95 1007.46 1008.10 1008.55 1009.13 1009.33 1009.61 1009.98 1010.37 1010.42 1010.47 1010.50 1010.31 1010.77 1011.04 1011.48 1012.10 1012.60 1013.03 1013.35 1013.86 1014.25 1014.72 1015.32 1015.68 1015.76 1015.77 1015.81 1015.80 1015.77 1015.79 1015.80 1015.82 1015.90 1016.01 1016.21 1016.14 1016.06 1016.39 1016.58 1016.67 1016.76 1016.92 1016.87 1016.96
1007.75 1007.71 1007.35 1006.91 1007.07 1007.55 1008.40 1008.48 1008.73 1009.27 1009.22 1009.31 1009.61 1009.95 1009.96 1010.24 1010.26 1010.45 1010.74 1011.11 1011.65 1012.10 1012.63 1013.14 1013.51 1014.02 1014.47 1014.83 1015.23 1015.44 1015.48 1015.52 1015.55 1015.55 1015.56 1015.52 1015.65 1015.77 1015.89 1015.95 1016.05 1016.15 1016.23 1016.40 1016.46 1016.57 1016.72 1016.70 1016.69
1007.81 1007.80 1007.56 1007.59 1007.62 1008.11 1008.34 1008.59 1009.15 1009.17 1009.12 1009.13 1009.11 1009.05 1009.19 1009.54 1010.17 1010.42 1010.73 1010.89 1011.40 1011.93 1012.24 1012.60 1013.21 1013.68 1014.03 1014.52 1014.97 1015.29 1015.47 1015.56 1015.64 1015.71 1015.72 1015.74 1015.60 1015.58 1015.69 1015.64 1015.67 1015.90 1016.06 1016.19 1016.27 1016.24 1016.28 1016.45 1016.48
1007.33 1006.78 1007.44 1008.03 1008.71 1009.37 1009.51 1010.05 1009.12 1009.17 1008.95 1008.67 1008.54 1008.62 1008.62 1008.96 1009.37 1009.79 1010.20 1010.63 1010.97 1011.46 1011.89 1012.26 1012.79 1013.33 1013.62 1014.07 1014.60 1014.81 1015.09 1015.33 1015.50 1015.49 1015.51 1015.68 1015.61 1015.46 1015.36 1015.40 1015.50 1015.80 1016.02 1016.12 1016.09 1016.07 1016.21 1016.35 1016.43
1006.64 1006.86 1007.73 1008.41 1009.65 1010.19 1010.44 1010.62 1009.00 1008.73 1008.43 1007.97 1007.83 1008.11 1008.25 1008.41 1008.67 1009.04 1009.65 1009.84 1010.23 1010.96 1011.40 1011.88 1012.52 1013.30 1013.51 1013.71 1014.04 1014.63 1014.92 1015.00 1015.18 1015.44 1015.56 1015.68 1015.45 1015.46 1015.64 1015.60 1015.82 1016.15 1016.24 1016.29 1016.26 1016.22 1016.22 1016.13 1016.25
1006.27 1007.09 1008.40 1009.51 1010.61 1011.58 1011.09 1010.98 1009.36 1008.40 1007.54 1007.05 1006.70 1006.81 1007.17 1007.45 1007.56 1008.02 1008.77 1009.51 1009.99 1010.47 1011.10 1011.56 1012.33 1012.80 1013.24 1013.52 1013.83 1014.19 1014.63 1014.77 1014.91 1015.15 1015.64 1015.79 1015.79 1015.75 1015.57 1015.63 1015.84 1016.05 1016.21 1016.33 1016.39 1016.31 1016.25 1016.22 1016.27
1006.37 1007.91 1009.76 1011.16 1011.99 1011.98 1011.33 1010.94 1008.54 1007.20 1006.49 1006.17 1006.05 1006.11 1006.21 1006.36 1006.95 1007.57 1008.24 1009.03 1009.68 1010.14 1010.58 1011.20 1012.02 1012.51 1012.95 1013.27 1013.54 1013.88 1014.14 1014.48 1014.63 1014.83 1015.18 1015.49 1015.70 1015.80 1015.81 1015.93 1016.15 1016.26 1016.26 1016.19 1016.24 1016.43 1016.53 1016.47 1016.49
1006.75 1008.05 1009.74 1011.47 1012.63 1012.08 1011.36 1010.02 1007.20 1005.87 1005.53 1005.39 1005.58 1005.68 1005.83 1006.15 1006.47 1006.88 1007.44 1008.27 1009.07 1009.57 1010.07 1010.69 1011.47 1011.95 1012.48 1013.01 1013.29 1013.51 1013.77 1014.09 1014.21 1014.42 1014.67 1014.92 1015.12 1015.32 1015.57 1015.78 1015.90 1016.11 1016.21 1016.23 1016.16 1016.39 1016.57 1016.58 1016.66
1006.43 1007.76 1009.03 1011.08 1012.75 1012.42 1011.19 1009.12 1006.84 1005.42 1005.31 1005.36 1005.28 1005.49 1005.52 1005.76 1006.18 1006.97 1007.53 1007.94 1008.46 1009.20 1009.65 1010.22 1011.03 1011.52 1012.03 1012.54 1012.91 1013.23 1013.49 1013.67 1013.83 1014.07 1014.31 1014.62 1014.89 1015.20 1015.47 1015.73 1015.94 1016.09 1016.25 1016.34 1016.54 1016.75 1016.83 1016.92 1016.95
1005.03 1006.55 1008.87 1010.90 1012.30 1012.51 1011.27 1009.78 1007.87 1005.78 1005.14 1005.05 1005.13 1005.14 1005.41 1005.71 1006.39 1006.80 1007.08 1007.46 1007.95 1008.44 1009.11 1009.88 1010.48 1010.92 1011.33 1011.97 1012.61 1012.97 1013.14 1013.24 1013.39 1013.77 1014.22 1014.60 1014.95 1015.26 1015.63 1016.04 1016.28 1016.41 1016.47 1016.59 1016.78 1016.96 1017.05 1017.11 1017.24
1005.36 1006.67 1008.73 1010.61 1011.70 1012.12 1011.66 1009.51 1006.53 1005.54 1004.94 1004.78 1004.74 1004.76 1005.19 1005.58 1006.17 1006.44 1006.91 1007.23 1007.66 1008.16 1008.86 1009.47 1010.07 1010.45 1010.91 1011.52 1012.15 1012.69 1013.08 1013.15 1013.43 1013.71 1014.19 1014.51 1014.80 1015.10 1015.48 1015.87 1016.23 1016.48 1016.66 1016.94 1017.22 1017.37 1017.41 1017.38 1017.42
1004.59 1006.09 1007.72 1010.10 1011.74 1011.98 1010.97 1008.28 1005.72 1005.25 1004.85 1004.68 1004.44 1004.81 1005.05 1005.63 1006.08 1006.36 1006.70 1007.07 1007.62 1008.00 1008.71 1009.14 1009.74 1010.24 1010.59 1011.18 1011.80 1012.47 1012.85 1013.12 1013.41 1013.70 1014.01 1014.32 1014.66 1015.24 1015.72 1016.16 1016.42 1016.63 1016.76 1016.80 1016.93 1017.15 1017.31 1017.41 1017.43
Wind_Speed
15 10 4 2 5 5 3 4 2 3 3 4 4 5 9 3 1 3 2 4 8 5 4 5 9 10 9 10 12 13 13 12 13 13 13 15 13 22 20 19 18 14 13 5 6 7 5 12 17
7 9 1 1 6 4 4 4 5 4 5 10 8 5 5 3 3 7 4 6 7 6 4 4 8 9 9 11 11 12 12 11 12 12 15 16 17 20 20 20 17 12 8 1 7 9 12 14 16
11 5 1 4 3 2 2 3 3 6 2 4 5 5 3 2 6 7 4 9 7 5 4 5 9 9 8 11 12 11 11 10 10 11 12 18 21 21 23 22 17 10 2 9 13 14 15 15 15
3 3 3 6 4 3 5 5 4 6 8 7 6 6 4 3 6 5 10 9 7 5 4 7 10 9 9 11 12 11 11 10 10 10 11 14 21 21 21 23 16 13 9 9 14 13 15 14 13
3 2 5 4 4 3 5 5 4 1 5 9 3 4 4 2 9 12 9 7 6 4 3 5 9 9 9 10 12 12 13 11 9 10 10 12 15 16 18 18 18 13 11 12 12 11 12 11 10
4 3 5 2 2 4 3 6 8 8 11 11 8 5 1 5 11 8 8 6 5 4 2 3 9 10 9 10 10 10 11 11 10 10 11 11 11 11 12 12 13 13 13 12 10 10 9 8 6
6 5 3 2 4 2 3 3 4 6 8 5 4 5 2 3 7 7 7 6 4 3 3 3 2 6 7 9 8 10 9 8 9 9 9 12 13 12 11 11 10 11 11 11 9 8 8 6 3
5 5 3 2 3 2 6 3 5 6 4 5 9 5 5 4 8 8 7 5 4 3 2 2 2 4 3 3 8 8 9 8 8 7 9 10 10 11 11 8 10 9 10 10 9 8 6 5 2
3 6 1 1 4 5 8 5 5 4 8 3 2 7 8 13 11 8 6 4 3 3 3 2 2 3 3 3 4 7 7 7 7 5 7 6 4 5 6 5 6 6 7 7 7 6 5 3 1
5 4 2 2 2 6 8 9 5 5 3 4 9 12 14 12 10 9 7 7 5 6 4 4 4 4 3 2 3 3 1 3 3 3 4 3 4 3 3 1 2 3 4 4 3 2 1 2 1
3 1 1 3 3 11 7 7 4 13 1 5 13 15 13 12 8 8 7 5 7 4 4 6 5 5 4 2 2 2 1 1 1 1 2 2 2 1 1 1 2 2 3 1 2 3 2 2 1
5 6 4 4 5 9 9 9 7 3 6 10 14 17 13 11 11 11 10 8 8 6 6 6 6 5 5 2 3 3 2 2 2 2 2 3 2 1 1 1 2 2 1 3 2 2 3 4 4
5 3 5 5 6 5 9 10 8 4 11 14 13 15 14 12 10 8 6 6 6 7 6 7 6 6 4 4 3 3 3 3 3 3 3 3 3 3 3 3 2 3 2 3 3 3 4 4 4
2 5 3 4 6 3 8 4 5 5 15 16 17 15 13 13 12 7 7 7 8 8 7 6 7 6 5 4 4 4 3 3 3 3 3 4 3 3 3 3 3 4 3 3 3 3 3 4 4
3 3 3 4 2 5 3 3 1 13 16 17 16 14 14 14 9 14 13 11 11 8 7 8 7 6 6 6 5 3 3 3 3 3 4 5 5 4 4 3 3 5 3 3 2 3 3 4 3
2 5 3 3 0 4 5 3 2 8 14 15 15 14 13 13 14 12 10 11 9 7 9 7 9 8 7 6 4 3 3 3 3 3 3 5 5 5 4 4 4 3 3 2 2 2 4 4 3
4 0 1 6 3 2 3 2 6 7 10 10 12 12 13 10 8 9 10 11 10 11 8 7 7 7 7 5 3 3 4 3 3 2 2 3 4 4 4 4 4 4 3 3 3 3 2 3 3
4 1 3 3 3 4 5 2 11 7 8 9 7 6 8 10 15 11 12 11 9 8 7 6 5 6 5 3 1 1 2 2 2 2 2 4 3 4 3 3 3 2 2 2 2 4 3 4 3
3 4 3 3 4 3 4 5 9 7 5 8 8 8 8 9 6 7 10 11 8 7 8 7 6 6 5 3 2 1 2 2 2 2 4 5 3 4 4 2 3 2 3 3 3 1 2 2 2
4 4 5 5 1 3 1 5 9 8 6 10 11 10 10 5 5 7 8 11 13 12 9 7 8 7 5 3 2 2 2 1 1 2 3 2 2 2 3 4 4 3 2 3 3 3 2 2 2
3 5 4 4 3 4 6 6 3 5 3 5 7 7 8 10 9 7 8 11 11 11 12 12 9 8 6 6 3 2 2 2 1 0 1 2 1 3 2 3 3 3 1 1 1 1 2 2 0
3 6 1 2 4 2 4 5 4 1 7 8 8 10 10 9 7 7 9 10 13 12 8 10 8 9 7 7 4 5 4 4 3 3 2 3 1 2 2 2 3 3 2 1 1 1 1 2 2
6 5 3 3 5 4 6 4 9 2 5 7 8 8 8 9 9 12 12 13 13 11 12 10 7 3 6 6 6 4 3 2 2 2 5 3 0 1 3 3 4 4 2 2 2 2 1 1 2
7 6 7 6 4 4 2 4 7 3 6 4 5 10 11 12 13 12 10 9 10 8 10 8 9 9 7 7 7 7 7 5 3 3 3 3 2 2 3 4 4 3 3 2 2 2 3 2 2
5 7 4 6 5 6 3 3 11 6 7 5 7 7 10 11 12 12 13 12 10 11 12 10 10 10 7 7 7 7 7 6 6 5 4 4 3 2 3 3 3 2 2 3 2 3 3 3 2
3 6 7 3 2 4 3 4 7 5 2 6 6 7 7 7 11 14 15 14 13 13 12 13 11 9 7 6 7 6 6 4 4 5 4 4 4 4 5 5 4 4 3 3 3 2 3 4 3
5 4 5 9 2 3 4 7 8 6 3 5 6 7 8 7 10 10 10 12 12 12 14 14 13 12 8 10 8 6 6 7 6 6 4 4 4 4 5 5 5 4 4 4 3 2 2 2 2
7 6 4 4 3 1 6 6 7 5 3 3 5 7 4 5 8 8 10 12 11 11 12 12 12 15 15 13 10 8 8 7 6 6 6 5 5 5 5 4 4 4 3 3 3 2 1 3 1
2 2 8 7 3 6 1 9 8 8 8 8 8 8 7 7 8 9 9 9 9 7 11 12 12 12 12 11 9 8 7 7 6 6 5 6 5 7 7 6 5 5 4 3 2 2 2 2 2
4 7 7 6 3 2 3 9 5 9 8 8 8 7 3 5 8 8 8 8 9 10 10 12 10 10 10 8 7 7 5 5 6 6 7 8 8 6 6 5 5 4 4 4 4 4 3 3 3
Wind_Direction
137 138 138 166 48 62 19 32 32 54 63 341 98 122 115 42 87 187 117 127 121 117 143 119 107 102 95 99 110 131 122 105 84 66 63 102 123 126 116 116 105 92 119 76 97 94 75 105 97
144 152 173 65 75 49 314 343 46 56 131 103 89 85 73 71 69 115 109 133 106 119 119 116 117 105 100 105 117 129 126 109 89 81 76 81 105 121 107 103 93 81 78 114 122 113 110 108 106
168 214 86 88 81 121 129 49 91 134 190 85 100 55 69 85 89 142 145 129 106 113 130 137 120 107 103 102 118 121 125 121 117 98 86 86 95 113 113 103 101 113 104 107 118 113 112 112 111
179 20 24 68 23 28 121 143 139 105 61 60 118 64 75 158 147 144 132 117 114 133 138 134 129 124 107 106 110 115 127 132 124 112 92 96 105 116 118 123 143 161 162 129 101 107 105 106 112
45 68 49 45 20 49 75 119 116 61 86 84 63 86 60 74 103 122 114 111 123 129 150 148 141 123 120 104 113 116 126 119 114 117 120 115 120 120 130 139 150 156 141 107 116 116 110 117 123
45 97 54 60 60 63 56 125 106 83 98 95 77 88 60 103 117 118 103 104 97 125 132 149 142 130 128 120 115 119 118 121 119 117 119 124 124 129 137 144 130 131 124 125 126 122 124 122 116
108 81 145 107 127 110 152 119 102 114 106 80 109 80 21 92 110 101 105 99 105 116 97 93 108 133 125 123 123 124 126 127 127 130 121 119 122 123 131 127 129 126 125 129 127 124 123 113 94
104 90 72 31 185 144 143 84 113 105 64 108 146 145 177 176 116 105 102 106 115 89 85 114 71 94 106 116 137 134 138 147 141 134 127 130 130 131 128 133 140 128 129 127 129 126 132 124 115
106 64 31 344 153 144 141 122 189 79 127 68 78 124 136 132 122 114 117 114 129 161 160 145 124 121 124 129 157 148 147 152 141 129 138 99 60 75 103 133 135 132 129 136 136 139 138 139 93
74 89 186 237 198 136 144 132 145 111 115 57 76 86 118 133 139 151 166 169 181 189 177 177 171 169 161 153 62 96 24 68 86 94 69 74 75 92 114 104 156 151 141 156 147 149 173 66 32
51 54 185 5 100 123 124 122 120 133 167 188 151 142 147 150 158 168 185 188 202 200 184 178 173 179 183 172 131 127 102 126 107 134 111 67 62 33 29 11 345 8 323 6 353 347 348 300 247
101 14 49 343 123 123 143 123 126 132 188 149 156 152 156 167 178 183 188 191 188 193 195 167 179 178 196 188 174 178 179 194 194 198 180 163 181 222 260 269 278 284 268 263 263 269 283 292 281
72 9 23 7 90 110 122 149 155 145 123 134 145 156 174 182 185 197 194 186 179 193 198 185 176 181 192 197 183 194 209 199 208 206 198 192 201 213 207 229 247 249 254 236 258 268 265 268 287
74 95 13 9 22 56 111 127 103 143 136 145 156 175 181 189 192 175 182 190 194 189 201 186 187 185 175 196 197 202 203 216 208 226 220 217 220 228 228 226 231 241 223 233 231 248 282 289 280
62 67 1 45 9 132 99 16 224 155 147 160 170 183 188 197 180 199 195 190 192 197 187 188 186 182 186 199 200 212 215 208 226 238 228 223 212 224 239 242 249 249 228 235 244 266 273 272 282
39 48 34 239 234 134 89 236 156 163 157 174 179 185 198 203 197 201 193 198 189 186 190 170 196 191 196 195 199 196 213 211 227 224 227 235 226 217 216 219 231 234 216 203 217 246 267 263 255
9 330 274 321 140 83 134 213 177 175 178 191 190 189 197 210 219 211 202 194 184 189 176 179 187 184 201 188 181 216 222 214 228 246 227 245 245 235 222 235 246 216 212 213 206 230 220 278 274
218 237 259 238 179 168 133 241 166 171 177 204 212 219 203 203 216 202 198 194 189 181 168 174 200 190 156 146 139 197 254 235 213 225 241 242 235 238 232 261 271 254 218 234 214 231 204 237 264
188 185 256 220 198 136 128 143 190 173 188 205 218 225 238 231 213 198 194 185 173 166 162 182 185 192 146 133 161 239 222 171 225 221 245 235 230 251 226 230 244 220 195 219 221 197 223 275 255
8 354 299 310 142 24 90 205 163 180 209 201 203 219 225 222 193 185 176 171 179 181 174 185 197 187 175 157 157 170 159 189 164 187 274 273 242 286 240 248 214 213 200 213 202 180 188 239 183
181 209 230 225 6 58 335 346 143 230 231 229 224 208 219 212 197 184 178 176 171 179 187 194 190 199 189 165 140 118 94 79 111 66 254 290 297 267 264 186 166 182 162 232 245 184 197 236 185
204 225 290 74 59 310 25 287 322 208 206 221 223 216 219 212 186 182 180 180 178 192 190 193 184 196 192 164 173 182 179 196 194 182 172 151 262 343 255 159 97 73 82 90 100 96 209 189 212
230 86 88 72 89 30 357 70 269 344 255 250 236 228 227 212 196 193 188 187 187 176 184 188 171 175 205 181 185 182 226 199 151 161 156 164 177 92 120 119 113 110 97 66 54 50 110 173 173
166 67 48 55 61 13 277 119 290 230 213 247 232 224 216 202 202 199 183 168 183 161 166 166 169 209 194 180 190 194 206 211 187 147 173 166 174 151 116 99 89 80 69 50 25 27 34 53 67
82 69 359 350 13 224 259 75 239 238 235 210 207 217 214 203 195 185 173 177 173 174 173 173 178 199 189 183 185 202 208 200 203 180 174 160 152 162 141 121 104 84 71 66 82 70 49 49 78
106 138 151 229 256 277 223 244 257 207 255 237 215 216 224 215 196 194 186 183 181 180 180 178 187 199 181 188 203 203 199 190 188 180 177 172 174 164 155 134 130 125 118 109 89 98 100 93 88
197 196 173 102 5 11 296 293 309 293 227 195 213 204 236 211 191 186 186 192 184 181 185 185 182 205 205 214 210 193 192 185 184 185 177 175 160 153 148 150 142 128 113 104 86 73 71 71 70
160 148 96 33 165 269 315 290 245 300 266 233 220 234 242 188 166 176 187 188 190 190 187 181 185 188 197 203 206 198 191 188 184 166 173 163 141 137 145 142 128 124 129 122 121 124 115 121 86
124 110 57 108 106 152 178 273 218 248 237 220 232 231 192 195 170 178 183 184 187 178 175 181 183 182 186 185 185 191 194 189 170 172 160 165 150 160 162 160 156 158 144 123 114 96 101 94 104
142 166 129 125 218 59 136 272 238 243 259 232 238 243 209 158 180 171 175 164 171 179 173 180 180 184 192 176 171 185 186 178 175 169 172 162 164 163 155 153 167 169 157 155 144 136 125 166 156